Flag for U.S.A. Weather past 2 weeks in Plano, Texas, U.S.A.

Now
60 °F

Heavy rain. Fog.


Feels Like: 60 °F
Forecast: 51 / 56 °F
Wind: 16 mph from North

Location: McKinney Municipal Airport

Current Time: Apr 27, 2015 at 8:38:37 PM

Latest Report: Apr 27, 2015 at 8:00 PM


Visibility: 4 mi

Pressure: 29.82 "Hg

Humidity: 96%

Dew point: 59 °F

Location of PlanoLocation

Historic Weather in Plano — Graph

°F

Plano temperature yesterday

Maximum temperature yesterday: 82 °F (at 12:53 PM)
Minimum temperature yesterday: 57 °F (at 3:53 AM)
Average temperature yesterday: 71 °F

Past Weeks' High & Low Weather Summary

 TemperatureHumidityPressure
High86 °F (Apr 25, 3:53 PM)100% (Apr 17, 11:53 PM)30.11 "Hg (Apr 17, 11:53 PM)
Low46 °F (Apr 20, 6:53 AM)26% (Apr 25, 3:53 PM)29.58 "Hg (Apr 26, 7:53 PM)
Average65 °F80%29.88 "Hg
* Reported Apr 12 6:53 PM — Apr 27 6:53 PM, Plano, Weather by CustomWeather, © 2015

Note: Actual official high and low records may vary slightly from our data, if they occured in-between our weather recording intervals... More about our weather records

Advertising

Plano weather history for previous 24 hours

 ConditionsComfort  
Time TempWeatherWind HumidityBarometerVisibility
6:53 PM
Mon, Apr 27
65 °FMostly cloudy.9 mph76%29.75 "Hg10 mi
5:53 PM65 °FOvercast.10 mph78%29.76 "Hg10 mi
4:53 PM66 °FOvercast.9 mph73%29.75 "Hg10 mi
3:53 PM67 °FOvercast.10 mph71%29.77 "Hg10 mi
3:02 PM67 °FMostly cloudy.6 mph71%29.78 "Hg10 mi
2:53 PM68 °FCloudy.7 mph70%29.77 "Hg10 mi
1:53 PM67 °FOvercast.10 mph71%29.78 "Hg10 mi
12:53 PM66 °FOvercast.10 mph70%29.78 "Hg10 mi
11:53 AM66 °FMostly cloudy.13 mph73%29.76 "Hg10 mi
10:53 AM63 °FOvercast.16 mph78%29.75 "Hg10 mi
9:53 AM61 °FOvercast.12 mph83%29.76 "Hg10 mi
8:53 AM60 °FOvercast.15 mph86%29.75 "Hg10 mi
7:53 AM60 °FOvercast.15 mph86%29.74 "Hg10 mi
6:53 AM60 °FOvercast.14 mph90%29.71 "Hg10 mi
5:53 AM63 °FOvercast.17 mph87%29.68 "Hg10 mi
4:53 AM67 °FOvercast.16 mph87%29.70 "Hg10 mi
3:53 AM69 °FPassing clouds.12 mph81%29.67 "Hg10 mi
2:53 AM70 °FPassing clouds.13 mph61%29.65 "Hg10 mi
1:53 AM67 °FLight rain. Overcast.20 mph73%29.66 "Hg10 mi
1:02 AM69 °FThundershowers. Overcast.14 mph81%29.72 "Hg9 mi
12:53 AM71 °FThunderstorms. Overcast.8 mph73%29.70 "Hg9 mi
11:53 PM
Sun, Apr 26
70 °FLight rain. Passing clouds.13 mph79%29.70 "Hg10 mi
10:53 PM73 °FThunderstorms. Overcast.7 mph69%29.69 "Hg10 mi
9:53 PM77 °FClear.8 mph58%29.60 "Hg10 mi
8:53 PM78 °FLight rain. Partly sunny.10 mph54%29.59 "Hg10 mi
Weather by CustomWeather, © 2015

See weather overviewHow to use our weather pages